Location: McFarlands Corners
(41.4117°N, 81.3382°W)
Time: 00:44:47
(UTC+00:00)

Transit 4A - Pass Details

Date: 19 February 2026
Orbit: 864 x 977 km, 66.8° (Epoch: 9 March)

Event Time Altitude Azimuth Distance (km) Brightness Sun altitude
Rises 16:27:32 0° 336° (NNW) 3,602 10.5 35.0°
Reaches altitude 10° 16:30:24 10° 347° (NNW) 2,672 9.9 35.1°
Maximum altitude 16:35:50 30° 48° (NE) 1,649 9.3 35.5°
Drops below altitude 10° 16:41:20 10° 108° (ESE) 2,712 10.9 35.8°
Sets 16:44:14 0° 119° (ESE) 3,663 11.6 36.0°
